CZ-6A R/B, 62803

Orbit data source: Space-Track

CZ-6A R/B, 62803 is space debris in LEO originally from a launch on Thu, 23 Jan 2025 UTC launched from the Taiyaun Space Center, China (TSC). Debris objects in space refer to the collection of defunct objects orbiting the Earth. Examples of debris include non-operational satellites, rocket bodies, and fragments generated from explosions, collisions, or faulty payload assembly.

Loading next visibility...
Identifier
62803, 2025-016U
Orbit
LEO
Country
Flag of CNCN / PRC
Related business
Manufacturer
SAST
Mission
Spacecraft
Bus & Motor
CZ-6A STAGE 2, YF-115
Mass
~6,000 kg wet, ~6,000 kg dry
Launch date (UTC)
2025-01-23 (2 years ago)
Launch vehicle
Unknown
Launch site
Taiyaun Space Center, China (TSC)
Object type
Payload
Rocket body
Debris
Shape & HBR
CYL, 4.4 m
Radar Cross Section
Large (>1 m²)

Expand to show TLE details & history
Last TLE update: 9 hours ago

TLE from 9 hours ago
0 CZ-6A R/B
1 62803U 25016U   26257.55768234  .00000257  00000-0  55024-4 0  9999
2 62803  89.0007  65.9791 0098696 220.8877 138.4900 14.52523883 86969
Epoch: 2026-09-14T13:23Z
TLE epoch observation values (Epoch: 2026-09-14T13:23:03.754Z)
Latitude
-0.00003°
Longitude
-128.32281°
Altitude
773.27 km
Speed
7.44 km/s
True Right ascension
04h 23m 54s
True Declination
0° 00' 00"
Sunlit
Object was in daylight at epoch
Visualization orbit readout
Latitude
Unknown
Longitude
Unknown
Altitude
Unknown
Speed
Unknown
Apparent Right ascension
Unknown
Apparent Declination
Unknown
Sunlit
N/A
Visualization observer readout
Local Sidereal Time
14:59:21
Azimuth
Unknown
Elevation
Unknown
Doppler factor
Unknown
Orbital elements
Apogee altitude
784.321 km
Perigee altitude
644.322 km
Semi-major axis
7,092.458 km
Eccentricity
0.00987
Inclination
89.0007°
RAAN
65.9791°
Arg. of periapsis
220.8877°
True anomaly
139.23267°
Mean anomaly
138.49°
Eccentric anomaly
138.86202°
Mean motion
3.63369 °/min
Orbital period
99.07 mins
BSTAR
0.000055024
Loading maneuver chart data...
Computing Atmospheric mass density...
Loading historical data...
Loading historical data...
Loading historical data...
Loading historical data...
Loading historical data...
Loading historical data...
Loading historical data...

Documentation

Showing up to 5 results
|